Main page
METAR-TAF:

METAR-TAF

Airports :

Puerto Suárez International Airport

Puerto Suárez, Bolivia

latitude: 18-59S, longitude: 057-49W, elevation: 134 m

Current weather observation

The report was made 54 minutes ago, at 17:00 UTC
Wind 5 kt from the North/Northeast
Temperature 31°C
Humidity 66%
Pressure 1014 hPa
Visibility 10 km or more
Scattered clouds at a height of 1700 ft

METAR: SLPS 251700Z 03005KT 9999 SCT017 31/24 Q1014

Time: 13:54 (17:54 UTC)


TAF: missing

Weather observations and forecasts of more than 4000 airports (METAR and TAF reports).

The available stations are represented by yellow and red dots on the map.

Hover mouse over dot to see the name of the station.

Then click to see weather observations and forecasts.

To change the map : click on the green buttons with a black cross to zoom in, on the green button with a dash to zoom out, or on the green arrows for adjacent maps.


METAR-TAF: